[[{"header":{"parameterUnit":"m.s-1","parameterCategory":1,"la1":30.2991,"la2":30.254,"lo1":-89.0895,"lo2":-89.0444,"dy":0.0017,"dx":0.0017,"nx":28,"ny":28,"refTime":"2024-10-09T03:00:00:Z","depth":0,"parameterNumber":2,"parameterNumberName":"U-component_of_WINDS"},"data":[0,0,0,0,0,0,0,0,0,0,0,0,0,0,0,0,0,0,0,0,0,0,0,0,0,0,0,0,0,0,0,0,0,0,0,0,0,0,0,0,0,0,0,0,0,0,0,0,0,0,0,0,0,0,0,0,0,0,-0.7271,-0.7271,0,-0.7336,-0.7337,-0.7338,-0.7289,-0.7287,-0.7285,-0.7283,-0.7353,-0.7356,-0.736,0,0,0,0,0,0,0,0,0,0,0,0,0,-0.7105,-0.7109,-0.7271,-0.7271,-0.7272,-0.7336,-0.7337,-0.7338,-0.7289,-0.7287,-0.7284,-0.7282,-0.7351,-0.7356,-0.7361,0,0,0,0,0,0,0,0,0,0,0,0,0,-0.7175,-0.711,-0.727,-0.7256,-0.7255,-0.7336,-0.7337,-0.7338,-0.729,-0.7287,-0.7283,-0.728,-0.735,-0.7356,-0.7361,-0.7461,0,0,-0.7379,-0.7381,0,0,0,0,0,0,0,0,-0.7171,-0.7181,-0.7257,-0.7257,-0.7256,-0.7301,-0.7304,-0.738,-0.7291,-0.7277,-0.7282,-0.7279,-0.7338,-0.7345,-0.7364,-0.7465,-0.7468,-0.7379,-0.7383,-0.7385,-0.7387,0,0,0,0,0,0,0,-0.7166,-0.7178,-0.7297,-0.7258,-0.7258,-0.7246,-0.7253,-0.7318,-0.7325,-0.7278,-0.7274,-0.7282,-0.7337,-0.7359,-0.7366,-0.7469,-0.7379,-0.7384,-0.7388,-0.739,-0.7655,-0.7659,0,0,0,0,0,0,-0.7162,-0.7174,-0.7294,-0.7299,-0.7205,-0.7252,-0.7259,-0.729,-0.7324,-0.7326,-0.7285,-0.728,-0.735,-0.7359,-0.7368,-0.7489,-0.7385,-0.7391,-0.7394,-0.7652,-0.7656,-0.766,0,0,0,0,0,0,-0.7159,-0.7174,-0.7292,-0.7235,-0.725,-0.7258,-0.7293,-0.7293,-0.7314,-0.733,-0.7331,-0.7306,-0.7348,-0.736,-0.7438,-0.749,-0.7393,-0.7399,-0.7647,-0.7653,-0.7658,-0.773,0,0,0,0,0,0,-0.7155,-0.7173,-0.7211,-0.7237,-0.7253,-0.7361,-0.7296,-0.7296,-0.7324,-0.7318,-0.7349,-0.7351,-0.7347,-0.743,-0.7444,-0.7497,-0.7403,-0.7643,-0.765,-0.7656,-0.7724,-0.7738,-0.775,0,0,0,0,0,-0.7149,-0.7229,-0.7213,-0.7227,-0.73,-0.7364,-0.7374,-0.7366,-0.7328,-0.7367,-0.7377,-0.735,-0.7482,-0.7439,-0.7454,-0.7509,-0.764,-0.7648,-0.7656,-0.7718,-0.7735,-0.7749,0,0,0,0,0,0,-0.721,-0.7232,-0.7214,-0.7305,-0.7333,-0.7356,-0.7404,-0.7384,-0.7424,-0.7417,-0.7406,-0.7413,-0.7496,-0.751,-0.7462,-0.7608,-0.7555,-0.7566,-0.7597,-0.7613,-0.7626,-0.7622,-0.7408,0,0,0,0,0,-0.7233,-0.7283,-0.73,-0.7378,-0.7393,-0.7396,-0.7424,-0.7415,-0.7444,-0.7456,-0.7471,-0.7501,-0.7549,-0.7581,-0.7626,-0.7724,-0.7731,-0.7769,-0.7782,-0.7793,-0.7804,-0.7858,-0.7876,-0.7686,-0.7686,-0.7686,0,0,-0.7284,-0.7302,-0.7334,-0.7391,-0.7411,-0.7464,-0.7407,-0.7464,-0.7504,-0.7465,-0.7541,-0.7553,-0.7585,-0.7675,-0.7714,-0.7689,-0.7857,-0.7803,-0.7812,-0.7817,-0.7868,-0.7886,-0.7902,-0.7692,-0.7691,-0.769,0,0,-0.7403,-0.742,-0.7488,-0.751,-0.7541,-0.7543,-0.7559,-0.7584,-0.7591,-0.7666,-0.7639,-0.7685,-0.7767,-0.7792,-0.7816,-0.7942,-0.792,-0.7957,-0.8027,-0.8079,-0.8094,-0.8108,-0.8155,-0.8172,-0.7967,-0.7967,-0.7967,0,-0.7462,-0.7539,-0.7526,-0.7586,-0.7612,-0.7578,-0.7647,-0.7669,-0.7714,-0.7733,-0.7703,-0.7806,-0.7825,-0.792,-0.7951,-0.797,-0.799,-0.7955,-0.8093,-0.8106,-0.8118,-0.8164,-0.8181,-0.7972,-0.7971,-0.7971,-0.797,0,-0.7611,-0.7665,-0.7716,-0.7759,-0.7791,-0.7855,-0.7853,-0.7886,-0.7874,-0.7879,-0.7957,-0.7978,-0.8027,-0.8048,-0.8038,-0.8142,-0.8125,-0.8094,-0.8041,-0.8141,-0.8184,-0.8201,-0.7978,-0.7976,-0.7975,-0.7974,0,0,-0.7773,-0.7807,-0.7826,-0.7846,-0.7877,-0.7919,-0.7982,-0.8029,-0.8059,-0.809,-0.8144,-0.8214,-0.8185,-0.8211,-0.8202,-0.8248,-0.835,-0.8212,-0.8212,-0.8239,-0.8469,-0.8495,-0.8515,-0.8334,-0.8337,-0.8339,-0.8467,0,-0.7895,-0.8004,-0.7994,-0.8098,-0.8148,-0.8115,-0.817,-0.8196,-0.8201,-0.8245,-0.8251,-0.8302,-0.8259,-0.8275,-0.8319,-0.8328,-0.8396,-0.8318,-0.8386,-0.8388,-0.8382,-0.8536,-0.8564,-0.8683,-0.8483,-0.8486,-0.8488,0,-0.8053,-0.809,-0.8199,-0.8223,-0.8243,-0.8293,-0.8335,-0.8377,-0.8405,-0.8406,-0.8435,-0.8418,-0.8482,-0.8425,-0.8514,-0.8462,-0.8488,-0.8496,-0.8501,-0.851,-0.8447,-0.8552,-0.8721,-0.874,-0.8513,-0.8511,-0.851,0,-0.8164,-0.824,-0.8315,-0.8333,-0.8362,-0.8397,-0.8411,-0.8436,-0.8465,-0.8502,-0.8521,-0.8565,-0.859,-0.8625,-0.862,-0.8579,-0.8712,-0.8654,-0.8716,-0.8716,-0.8748,-0.8747,-0.8927,-0.876,-0.876,-0.876,-0.8759,0,-0.8304,-0.8373,-0.8365,-0.8412,-0.8488,-0.8475,-0.8551,-0.856,-0.8583,-0.8631,-0.8604,-0.8651,-0.8641,-0.8687,-0.8684,-0.8759,-0.877,-0.8774,-0.8773,-0.8778,-0.8778,-0.8798,-0.8791,-0.8764,-0.8763,-0.8762,-0.8762,0,-0.8442,-0.844,-0.852,-0.854,-0.8547,-0.8602,-0.862,-0.8664,-0.8666,-0.8728,-0.8742,-0.8747,-0.88,-0.8798,-0.8858,-0.8856,-0.8949,-0.8937,-0.894,-0.8939,-0.9002,-0.8997,-0.9204,-0.9231,-0.9044,-0.9045,-0.9047,0,-0.8533,-0.8585,-0.861,-0.864,-0.8657,-0.8705,-0.8734,-0.8723,-0.8755,-0.879,-0.8831,-0.8881,-0.8921,-0.9007,-0.9017,-0.9063,-0.9054,-0.9122,-0.9061,-0.9065,-0.9058,-0.9056,-0.9062,-0.9136,-0.9138,-0.914,-0.9141,0,-0.8696,-0.8691,-0.8734,-0.8777,-0.8812,-0.8845,-0.8875,-0.8901,-0.8893,-0.893,-0.8983,-0.9014,-0.9075,-0.9126,-0.917,-0.9185,-0.9163,-0.916,-0.9177,-0.9185,-0.9186,-0.9189,-0.8977,-0.9156,-0.9155,-0.9154,-0.9153,-0.9152,-0.8815,-0.886,-0.8885,-0.8933,-0.8954,-0.8983,-0.9026,-0.9033,-0.9077,-0.9126,-0.9116,-0.9176,-0.9203,-0.926,-0.9278,-0.9326,-0.9302,-0.9327,-0.9333,-0.9341,-0.9349,-0.9175,-0.9334,-0.9333,-0.9333,-0.9333,-0.9332,0,-0.8978,-0.8992,-0.9037,-0.9079,-0.9118,-0.909,-0.9122,-0.9157,-0.921,-0.9236,-0.9276,-0.9338,-0.9387,-0.9399,-0.9446,-0.9482,-0.9473,-0.9495,-0.9494,-0.9499,-0.9367,-0.9348,-0.9502,-0.9502,-0.9502,-0.9502,-0.9502,-0.9502,-0.9068,-0.9144,-0.9142,-0.9228,-0.9241,-0.93,-0.9321,-0.9347,-0.9368,-0.9438,-0.9479,-0.9485,-0.9507,-0.9555,-0.9599,-0.9601,-0.9621,-0.9648,-0.9647,-0.9524,-0.9508,-0.9492,-0.9474,-0.9652,-0.9652,-0.9775,-0.9776,-0.9777]},{"header":{"parameterUnit":"m.s-1","parameterCategory":1,"la1":30.2991,"la2":30.254,"lo1":-89.0895,"lo2":-89.0444,"dy":0.0017,"dx":0.0017,"nx":28,"ny":28,"refTime":"2024-10-09T03:00:00:Z","depth":0,"parameterNumber":3,"parameterNumberName":"V-component_of_WINDS"},"data":[0,0,0,0,0,0,0,0,0,0,0,0,0,0,0,0,0,0,0,0,0,0,0,0,0,0,0,0,0,0,0,0,0,0,0,0,0,0,0,0,0,0,0,0,0,0,0,0,0,0,0,0,0,0,0,0,0,0,-4.2063,-4.2064,0,-4.2153,-4.2154,-4.2155,-4.2102,-4.21,-4.2097,-4.2095,-4.2185,-4.2189,-4.2194,0,0,0,0,0,0,0,0,0,0,0,0,0,-4.1839,-4.1844,-4.2062,-4.2064,-4.2065,-4.2153,-4.2154,-4.2156,-4.2103,-4.21,-4.2096,-4.2093,-4.2183,-4.2189,-4.2194,0,0,0,0,0,0,0,0,0,0,0,0,0,-4.1934,-4.1845,-4.2062,-4.2049,-4.2049,-4.2153,-4.2155,-4.2156,-4.2103,-4.2099,-4.2096,-4.2092,-4.2181,-4.2188,-4.2195,-4.2317,0,0,-4.2217,-4.222,0,0,0,0,0,0,0,0,-4.1929,-4.1942,-4.205,-4.205,-4.205,-4.2113,-4.2109,-4.221,-4.2104,-4.2083,-4.2095,-4.209,-4.2163,-4.2172,-4.2197,-4.2321,-4.2325,-4.2218,-4.2222,-4.2225,-4.2227,0,0,0,0,0,0,0,-4.1922,-4.1938,-4.2098,-4.2051,-4.2052,-4.2037,-4.2047,-4.2128,-4.2143,-4.2084,-4.208,-4.2092,-4.2163,-4.219,-4.2199,-4.2326,-4.2217,-4.2224,-4.2228,-4.2231,-4.2553,-4.2557,0,0,0,0,0,0,-4.1917,-4.1933,-4.2095,-4.2101,-4.1979,-4.2045,-4.2055,-4.2096,-4.2142,-4.2146,-4.2095,-4.2089,-4.218,-4.2191,-4.2202,-4.2347,-4.2225,-4.2232,-4.2236,-4.2549,-4.2554,-4.2558,0,0,0,0,0,0,-4.1912,-4.1932,-4.2092,-4.2016,-4.2035,-4.2053,-4.21,-4.21,-4.2128,-4.2151,-4.2153,-4.2121,-4.2177,-4.2192,-4.2289,-4.2349,-4.2235,-4.2242,-4.2544,-4.255,-4.2556,-4.2638,0,0,0,0,0,0,-4.1906,-4.1931,-4.1978,-4.2018,-4.204,-4.2178,-4.2103,-4.2105,-4.2141,-4.2134,-4.2176,-4.2179,-4.2176,-4.2278,-4.2296,-4.2357,-4.2247,-4.2538,-4.2546,-4.2554,-4.263,-4.2646,-4.2661,0,0,0,0,0,-4.1898,-4.1997,-4.1981,-4.2,-4.2099,-4.2182,-4.2194,-4.219,-4.2146,-4.2193,-4.2208,-4.2177,-4.234,-4.2288,-4.2308,-4.2372,-4.2534,-4.2544,-4.2553,-4.2623,-4.2643,-4.266,0,0,0,0,0,0,-4.1963,-4.2002,-4.1984,-4.2098,-4.2137,-4.2173,-4.2232,-4.2211,-4.2262,-4.2253,-4.2244,-4.2254,-4.2355,-4.2373,-4.2315,-4.2492,-4.243,-4.2444,-4.2476,-4.2496,-4.2511,-4.2504,-4.2253,0,0,0,0,0,-4.199,-4.2055,-4.2085,-4.2183,-4.2204,-4.2215,-4.2251,-4.2244,-4.2283,-4.2299,-4.2321,-4.2359,-4.2419,-4.2458,-4.2514,-4.2632,-4.264,-4.2686,-4.2701,-4.2714,-4.2726,-4.2789,-4.281,-4.259,-4.259,-4.2589,0,0,-4.2048,-4.2077,-4.2119,-4.2197,-4.2226,-4.2293,-4.2229,-4.2302,-4.2351,-4.2309,-4.2403,-4.242,-4.2462,-4.257,-4.2619,-4.2588,-4.2788,-4.2726,-4.2736,-4.2741,-4.2801,-4.2822,-4.284,-4.2596,-4.2595,-4.2594,0,0,-4.2187,-4.2216,-4.23,-4.2331,-4.2377,-4.2383,-4.2404,-4.2442,-4.2453,-4.2546,-4.2516,-4.2574,-4.2677,-4.2708,-4.2737,-4.2888,-4.2862,-4.2906,-4.2986,-4.3048,-4.3065,-4.308,-4.3134,-4.3153,-4.2918,-4.2918,-4.2919,0,-4.2252,-4.2352,-4.2346,-4.2422,-4.2457,-4.2424,-4.2509,-4.2538,-4.26,-4.2624,-4.2589,-4.2718,-4.2744,-4.2859,-4.2895,-4.292,-4.2943,-4.2902,-4.3063,-4.3079,-4.3093,-4.3144,-4.3164,-4.2923,-4.2923,-4.2922,-4.2922,0,-4.243,-4.25,-4.2563,-4.2624,-4.2666,-4.2746,-4.2751,-4.2794,-4.2783,-4.2793,-4.2888,-4.2918,-4.298,-4.3006,-4.2996,-4.312,-4.3099,-4.3064,-4.3002,-4.3119,-4.3167,-4.3186,-4.2931,-4.2929,-4.2927,-4.2926,0,0,-4.2612,-4.2669,-4.2692,-4.272,-4.2767,-4.2821,-4.2898,-4.296,-4.2997,-4.304,-4.3104,-4.3192,-4.316,-4.3194,-4.3186,-4.3241,-4.3358,-4.3199,-4.32,-4.3227,-4.3495,-4.3522,-4.3544,-4.3341,-4.3345,-4.3348,-4.3492,0,-4.2754,-4.2892,-4.2888,-4.3016,-4.308,-4.3049,-4.3117,-4.3153,-4.3164,-4.3219,-4.323,-4.3293,-4.3246,-4.3266,-4.3318,-4.3333,-4.3412,-4.3322,-4.34,-4.3403,-4.3391,-4.3569,-4.3597,-4.3732,-4.351,-4.3514,-4.3516,0,-4.2938,-4.2988,-4.3123,-4.3161,-4.3188,-4.3249,-4.3304,-4.3358,-4.3397,-4.3402,-4.3439,-4.3424,-4.3501,-4.3437,-4.3544,-4.3483,-4.3515,-4.3527,-4.3532,-4.3539,-4.3467,-4.3581,-4.3775,-4.3795,-4.3545,-4.3543,-4.3541,0,-4.3057,-4.3158,-4.3252,-4.3276,-4.3323,-4.3367,-4.3388,-4.3424,-4.3461,-4.3509,-4.3533,-4.3589,-4.362,-4.3664,-4.3663,-4.3616,-4.3771,-4.3707,-4.3776,-4.3776,-4.381,-4.3808,-4.4012,-4.3831,-4.383,-4.383,-4.383,0,-4.3216,-4.3299,-4.3306,-4.3364,-4.3456,-4.345,-4.3541,-4.3558,-4.3591,-4.365,-4.3626,-4.3682,-4.3678,-4.3734,-4.3734,-4.3822,-4.3836,-4.3841,-4.384,-4.3844,-4.3843,-4.3864,-4.3855,-4.3835,-4.3834,-4.3833,-4.3832,0,-4.3365,-4.3373,-4.3473,-4.3509,-4.352,-4.3586,-4.3617,-4.3671,-4.368,-4.3755,-4.3773,-4.3786,-4.3852,-4.3855,-4.393,-4.393,-4.4037,-4.4026,-4.4025,-4.4022,-4.4092,-4.4085,-4.4316,-4.4346,-4.4146,-4.4147,-4.4149,0,-4.3466,-4.3529,-4.3573,-4.3611,-4.3636,-4.3698,-4.3736,-4.3732,-4.3773,-4.3823,-4.3871,-4.3934,-4.3984,-4.4089,-4.4105,-4.4162,-4.4152,-4.4229,-4.416,-4.4162,-4.4153,-4.4149,-4.4156,-4.4242,-4.4245,-4.4246,-4.4248,0,-4.3644,-4.3645,-4.3701,-4.3759,-4.3805,-4.385,-4.3892,-4.3924,-4.3926,-4.3972,-4.4039,-4.4078,-4.4155,-4.4217,-4.4273,-4.4293,-4.4271,-4.4269,-4.4288,-4.4293,-4.4289,-4.4292,-4.4061,-4.4264,-4.4262,-4.4261,-4.426,-4.426,-4.3772,-4.3827,-4.3866,-4.3929,-4.396,-4.4,-4.4053,-4.4069,-4.4125,-4.4188,-4.4182,-4.4256,-4.4294,-4.4366,-4.4391,-4.4448,-4.4422,-4.4449,-4.4456,-4.4463,-4.4471,-4.428,-4.4458,-4.4458,-4.4457,-4.4457,-4.4457,0,-4.3948,-4.3972,-4.4031,-4.409,-4.414,-4.4115,-4.416,-4.4203,-4.4269,-4.4306,-4.4357,-4.4433,-4.4494,-4.4515,-4.4573,-4.4615,-4.4606,-4.4631,-4.4627,-4.4633,-4.4491,-4.4469,-4.4637,-4.4637,-4.4637,-4.4637,-4.4637,-4.4637,-4.4046,-4.4138,-4.4144,-4.425,-4.4273,-4.4346,-4.4374,-4.441,-4.444,-4.4527,-4.4578,-4.4591,-4.4622,-4.4683,-4.4737,-4.4741,-4.4764,-4.4793,-4.4793,-4.4661,-4.4642,-4.4625,-4.4604,-4.4798,-4.4798,-4.493,-4.4931,-4.4932]}]]